Temp_Advection
nan nan nan nan nan nan nan nan nan nan nan nan nan nan nan nan nan nan nan nan nan nan nan nan nan nan nan nan nan nan nan nan nan nan nan nan nan nan nan nan nan nan nan
nan -0 -0 -0 -0 -0 -0 -0 -0 -0 0 0 0 -0 -0 0 0 0 0 0 -0 -0 -0 -0 -0 0 0 -0 -0 -0 -0 -0 -0 0 -0 -1 -1 -0 -0 -0 -0 -0 nan
nan -0 -0 -0 -0 -0 -0 -0 -0 -0 -0 0 0 -0 -0 0 0 0 0 0 0 -0 -0 0 -0 -0 -0 -0 -0 -0 -0 0 -0 -0 -0 -1 -1 -0 -0 -0 -0 -0 nan
nan -0 -1 -0 -0 -0 -0 -0 -0 -0 -0 0 -0 -0 -0 -0 -0 -0 0 0 0 0 -0 -0 -0 -0 -0 -0 -0 -0 -0 -0 -0 -0 -0 -1 -1 -0 0 -0 -0 -0 nan
nan 0 -0 -0 -0 -0 -0 -0 -0 -0 -0 -0 -0 -0 -0 -0 0 0 0 -0 -0 -0 -0 0 -0 -0 -0 -0 -0 -0 -0 -0 -0 -0 -1 -2 -1 0 1 -0 -0 -0 nan
nan 0 0 -0 -0 0 0 -0 -0 -0 -0 -0 -0 -0 -0 -0 -0 0 -0 -0 -0 -0 -0 0 -0 -0 -0 -0 -0 -0 -0 -0 -0 -1 -2 -1 -0 0 1 0 -0 0 nan
nan 0 0 0 0 0 0 0 -0 -0 0 -0 -0 -0 -0 -0 -0 -0 -0 -0 -0 -0 0 -0 -0 -0 -0 -0 -0 -0 -0 -0 -0 -1 -2 -0 0 -0 -0 0 0 -0 nan
nan -0 0 0 0 0 0 0 0 0 0 0 -0 -0 -0 -0 -0 -0 -0 -0 -0 -0 -0 -0 0 -0 -0 -0 -0 -0 -0 -0 -0 -1 -1 -0 -0 -0 -0 -0 0 0 nan
nan 0 -0 0 0 0 0 0 0 0 0 0 0 -0 -0 0 0 0 0 -0 -0 -0 -0 0 0 0 -0 -0 -0 -0 -0 -0 -1 -2 -1 0 -0 -0 0 -0 -1 0 nan
nan 1 0 -0 0 0 0 0 0 0 0 0 0 0 0 0 0 0 0 0 0 -0 0 0 0 0 -0 -0 -0 0 0 -0 -1 -2 -1 0 -0 -0 -0 -0 -0 -0 nan
nan 1 1 -0 -0 0 0 0 0 0 0 0 0 0 -0 -0 0 0 0 0 0 0 0 0 0 -0 -0 -0 -0 0 -0 -1 -1 -1 -0 0 -0 -0 -0 -1 -0 0 nan
nan 1 1 -0 -0 -0 0 0 0 0 0 0 -0 -0 0 -0 -0 0 0 0 0 -0 0 0 0 -0 -0 -0 -0 0 -0 -1 -1 -1 -0 0 -0 -0 -0 -0 0 -0 nan
nan 0 0 0 0 -0 -0 -0 -0 -0 0 0 0 0 0 0 -0 -0 -0 -0 -0 0 -0 -0 -0 -0 -0 -0 -0 -0 -0 -0 -1 -1 -0 -0 0 -0 -0 -0 -0 -0 nan
nan -1 -0 0 0 -0 -0 -0 -0 0 -0 -0 0 0 0 -0 -0 -0 -0 -0 -0 0 0 -0 -0 -0 -0 -0 -0 0 -0 -0 -0 -1 -1 -0 0 -0 -0 -0 -0 -0 nan
nan -1 -1 -0 -0 -0 -0 -0 -0 0 0 0 0 0 0 0 -0 -0 -0 -0 0 -0 0 -0 -0 -0 -0 -0 0 0 -0 -0 -0 -0 -0 -0 -1 -1 -0 -0 -0 -0 nan
nan 1 -0 -0 -0 0 0 0 -0 0 0 0 0 0 0 0 -0 -0 -0 -0 0 -0 -0 0 -0 -0 -0 0 -0 0 0 -0 0 0 0 0 -0 0 -1 -1 0 -0 nan
nan 1 1 1 0 0 0 0 0 0 0 0 0 0 0 0 0 -0 -0 -0 -0 0 -0 -0 -0 0 0 0 -0 -0 0 -0 0 0 -0 -0 0 0 -0 -1 -1 0 nan
nan 1 1 1 1 0 0 0 0 0 0 0 0 0 0 -0 0 0 0 -0 -0 -0 0 0 -0 -0 0 0 0 -0 -0 -0 0 0 -0 -0 -0 -0 -0 -0 0 -1 nan
nan 1 0 1 1 0 0 0 0 0 0 0 0 -0 -0 -0 0 0 0 -0 -0 -0 0 0 0 0 -0 -0 0 -0 0 -0 -0 -0 -0 -0 -0 -0 -0 -0 -0 -0 nan
nan -1 1 1 1 1 0 0 1 0 0 0 -0 -0 -0 0 -0 0 0 0 0 0 0 0 0 0 0 -0 -0 -0 0 0 -0 -0 -0 -0 -0 -0 -0 -0 -0 -0 nan
nan -0 -0 0 -0 0 0 1 1 0 0 -0 0 0 0 0 -0 -0 0 0 0 0 0 0 0 -0 0 0 -1 -1 -0 0 0 -0 -0 -0 -0 -0 -0 -0 -0 -0 nan
nan -0 -1 -1 0 -0 1 0 0 0 -0 0 0 -0 0 0 -0 -0 -0 0 0 1 0 0 0 -0 -0 0 -1 -2 -1 -0 0 0 -0 -0 -0 -0 -0 -0 -0 -0 nan
nan -1 -0 -0 1 -0 1 0 -0 0 0 1 -0 -0 0 0 -0 0 -0 0 0 0 0 0 0 -0 -1 -1 0 -0 -1 -1 -0 0 0 -0 -0 -0 -0 -0 -0 -0 nan
nan -0 1 2 1 1 -0 -0 -1 -0 0 -0 -0 0 0 0 0 0 0 0 0 0 0 0 -0 0 -0 -1 -0 0 -0 -0 -1 -1 -0 -0 -0 -0 -0 -0 -0 -0 nan
nan 1 1 3 2 0 -0 -1 -0 0 -0 -0 0 1 1 0 1 1 0 0 0 -0 0 -0 -0 0 0 -0 -0 0 -0 -0 -0 -0 -0 -0 -0 -0 0 -0 -0 -0 nan
nan nan nan nan nan nan nan nan nan nan nan nan nan nan nan nan nan nan nan nan nan nan nan nan nan nan nan nan nan nan nan nan nan nan nan nan nan nan nan nan nan nan nan
Wind_Speed
32 29 28 26 25 24 23 22 22 22 21 21 22 24 26 28 28 28 26 25 24 23 22 21 20 20 21 22 22 22 21 19 19 19 19 19 17 17 16 14 12 14 13
35 32 30 29 27 25 25 24 23 22 22 22 23 26 28 28 27 26 24 23 22 21 20 19 18 19 20 22 20 17 14 14 13 13 12 15 18 15 15 15 12 10 12
35 33 32 30 28 27 26 25 23 23 23 24 25 27 28 27 25 23 22 21 20 19 18 18 17 20 20 18 15 15 14 13 11 10 8 10 14 14 12 11 12 13 12
35 34 32 31 29 28 27 25 24 24 25 25 27 27 27 25 24 21 20 19 18 16 16 18 18 17 16 14 15 14 12 10 9 9 9 13 18 20 19 18 20 19 21
35 34 32 30 29 28 27 25 24 25 25 26 27 26 25 24 22 20 18 18 17 15 17 17 16 15 14 14 12 11 10 9 10 11 14 21 24 23 20 20 21 22 22
36 34 31 30 29 28 27 25 25 25 25 25 25 24 23 23 21 19 18 17 16 15 16 15 14 13 12 11 11 11 11 11 12 13 21 24 24 22 22 21 21 20 20
37 34 31 30 29 28 27 26 25 25 24 24 23 23 22 21 19 17 16 15 15 17 14 14 12 11 10 10 11 11 10 10 12 17 24 23 23 23 23 21 21 21 21
37 34 32 30 29 28 27 26 25 25 24 23 23 22 21 19 18 17 17 16 15 15 14 12 10 10 9 9 9 9 9 10 14 20 24 25 22 22 22 21 22 22 21
37 35 33 31 29 28 27 26 25 24 24 23 23 21 20 19 17 17 17 16 17 15 14 11 10 8 8 9 8 8 10 12 17 23 26 24 20 22 22 22 21 21 22
37 36 34 32 30 29 28 26 26 25 25 24 22 21 20 19 18 18 18 18 18 16 14 10 9 7 8 8 9 11 13 16 21 24 25 24 20 21 21 20 21 22 22
38 37 35 34 32 30 29 28 27 27 25 25 23 22 21 20 20 19 20 20 18 16 14 11 9 7 9 9 12 14 16 21 22 24 25 21 20 21 21 20 21 20 21
42 40 37 35 34 32 31 31 30 29 28 26 24 23 22 21 21 21 22 21 19 16 16 12 11 12 14 17 18 17 19 21 24 25 23 22 21 20 20 20 19 19 19
43 41 39 37 35 34 34 34 32 30 29 26 24 23 22 22 22 24 25 25 23 17 17 13 13 14 16 18 17 18 18 18 20 25 22 21 18 21 19 19 18 18 18
46 42 40 38 37 36 35 35 33 32 30 28 25 23 23 24 24 26 27 26 23 18 16 12 12 13 14 15 15 15 15 15 16 19 21 21 20 19 19 18 17 17 16
46 44 41 39 38 37 36 35 34 33 31 29 27 25 24 22 23 25 26 26 24 21 13 11 9 11 11 11 13 12 14 15 15 15 16 14 14 18 19 17 16 15 15
46 45 43 41 39 37 37 37 36 34 32 29 28 25 25 19 22 25 26 27 25 19 13 8 6 10 11 10 10 11 14 14 13 14 13 13 12 13 15 17 15 15 15
47 45 44 42 39 38 37 37 36 35 33 31 28 25 23 18 21 25 28 27 24 20 14 8 10 13 11 11 10 13 12 12 13 13 13 14 13 14 14 15 15 16 15
46 45 43 41 40 38 37 37 36 36 34 32 28 23 23 19 19 25 30 27 24 19 13 11 11 15 13 11 13 14 12 12 10 11 11 13 13 14 13 14 15 13 15
46 44 43 42 41 39 37 37 37 37 36 31 26 27 25 22 20 25 29 28 24 20 15 13 14 14 16 15 15 15 13 9 10 11 10 12 13 13 12 14 14 13 13
44 40 39 41 40 39 38 38 38 40 36 32 29 27 25 24 24 26 29 25 25 23 18 17 15 17 16 18 20 16 15 11 10 11 10 10 12 13 13 13 12 13 12
42 43 40 39 41 42 44 46 45 45 40 35 32 28 25 25 26 26 29 27 25 24 22 18 18 19 22 22 24 21 16 11 8 7 8 8 10 11 12 12 12 12 12
41 43 28 43 41 44 48 48 46 43 39 33 33 28 27 28 28 27 28 31 28 28 25 21 21 25 24 24 23 21 13 10 7 3 2 5 8 9 11 12 12 12 12
49 42 40 44 49 48 49 48 45 44 38 39 36 32 31 30 28 27 27 27 28 29 27 23 22 25 29 25 19 7 10 6 12 8 5 2 4 7 9 9 10 10 11
49 42 37 46 53 53 50 52 50 50 48 45 39 35 32 30 30 28 27 27 27 29 28 22 21 22 25 26 24 9 5 4 10 9 10 8 6 4 6 8 9 11 11
45 46 51 41 45 57 54 52 50 51 48 44 40 35 31 31 29 29 29 29 28 28 24 23 22 22 24 21 23 14 9 7 8 6 11 15 12 7 4 4 6 8 10
47 39 44 40 52 61 57 52 52 53 51 46 39 35 34 33 33 30 30 29 26 24 23 22 20 19 20 19 18 14 11 12 12 7 6 12 11 10 7 5 4 6 8
Wind_Direction
168 161 162 162 159 153 149 144 140 136 133 131 130 129 126 124 122 121 120 118 117 112 107 104 103 101 99 97 94 94 94 96 95 88 82 78 77 74 75 80 81 73 69
161 160 162 163 161 155 151 147 144 141 137 135 134 132 129 126 123 122 121 119 117 113 109 106 107 104 99 96 92 85 90 91 88 81 81 80 72 71 72 70 68 71 70
161 158 161 163 161 156 152 149 147 144 140 137 137 136 132 128 126 125 124 122 119 116 111 108 103 103 104 97 82 77 85 81 68 55 57 66 73 70 64 67 61 59 57
159 157 161 163 159 155 152 150 148 145 142 141 140 138 135 131 128 126 126 126 125 121 115 108 105 103 96 88 78 77 76 60 49 44 51 66 77 73 74 72 70 74 75
160 159 161 161 159 155 152 151 149 147 145 145 143 141 138 135 132 129 128 131 133 122 113 110 104 97 93 86 77 72 74 63 48 54 70 78 74 72 76 80 78 72 71
161 160 160 160 159 156 155 153 151 150 148 147 146 143 140 138 137 137 137 137 134 127 120 112 104 99 95 85 72 70 63 56 49 63 83 80 76 75 75 76 78 75 72
162 161 160 162 160 159 157 155 154 153 151 148 145 143 143 142 141 143 142 141 135 134 124 120 113 109 93 75 65 68 57 54 64 81 84 77 75 75 77 77 75 73 72
163 162 161 162 162 161 158 157 157 155 151 149 147 146 145 145 144 143 141 143 137 136 130 123 120 106 90 77 73 64 54 69 91 91 87 82 78 78 77 75 74 73 72
166 164 164 164 164 163 160 159 158 155 153 153 152 150 149 144 143 143 143 138 139 137 131 129 120 103 92 80 71 69 78 93 100 92 88 83 84 81 78 76 72 74 72
170 169 168 167 167 164 162 161 160 159 159 158 156 152 149 147 147 145 139 140 137 135 131 127 114 100 83 68 82 99 104 102 92 95 87 85 84 82 81 79 72 73 70
175 174 173 171 170 167 164 162 162 163 163 162 159 157 153 151 151 146 140 139 137 136 133 133 123 95 85 90 100 108 111 102 97 90 90 87 83 81 81 76 77 70 68
179 178 177 174 172 170 167 165 166 167 168 166 163 161 159 156 152 148 142 141 137 135 136 135 120 95 87 92 101 103 100 100 97 86 88 85 81 78 76 76 73 73 71
182 181 180 177 175 173 172 169 170 170 169 168 167 165 164 159 156 152 149 148 147 154 147 136 117 102 92 88 102 101 94 98 98 99 93 93 84 80 75 75 76 75 74
186 185 183 180 178 177 176 174 172 172 171 171 169 169 170 163 160 159 158 157 157 160 151 136 121 109 104 97 95 106 96 102 103 103 105 101 92 86 79 71 74 73 74
190 188 187 183 182 180 179 176 175 175 175 173 172 172 169 164 164 163 163 162 162 161 157 142 130 122 119 111 99 111 106 103 103 102 100 94 95 94 85 73 71 71 70
194 192 189 187 186 183 182 179 178 178 176 174 172 169 170 161 164 166 166 166 168 163 162 159 148 152 141 125 108 122 115 102 101 95 91 92 82 77 80 84 83 75 65
199 195 193 189 187 185 184 182 181 179 178 177 174 173 173 173 172 171 171 174 174 170 160 163 167 172 161 141 126 132 119 105 92 85 79 75 74 70 70 73 92 82 74
200 198 194 193 189 187 187 185 183 181 180 179 180 182 179 177 179 177 177 179 182 176 175 172 183 181 170 153 140 133 119 107 86 74 76 74 70 66 68 66 63 73 84
202 198 197 197 194 188 189 187 185 184 184 186 187 183 182 181 185 184 185 183 188 186 185 181 186 193 172 157 142 127 114 98 77 70 72 69 66 61 62 60 54 54 70
203 197 198 201 199 192 190 188 187 187 188 190 190 186 187 187 188 188 189 192 195 195 193 186 191 181 180 159 139 127 116 106 90 66 57 53 55 56 54 53 52 50 54
208 195 198 204 202 196 191 190 186 189 190 188 194 194 196 192 189 192 191 199 202 198 195 193 186 180 172 162 148 132 123 118 101 75 52 36 37 43 45 46 49 48 45
212 197 211 202 205 199 196 192 192 191 194 197 195 200 202 194 191 190 196 199 200 199 194 194 197 180 174 174 163 141 141 152 157 153 71 23 17 24 31 30 38 39 38
207 206 207 214 210 200 200 196 199 198 202 196 195 198 198 194 195 195 198 204 201 200 200 198 197 190 177 176 178 160 152 177 176 193 208 263 339 7 18 22 30 32 33
210 211 215 224 220 206 207 205 208 206 196 193 194 196 198 203 202 199 202 202 201 202 203 200 195 199 191 178 180 178 167 174 175 183 212 231 265 313 356 9 18 21 22
204 218 221 217 222 212 205 214 204 199 198 195 194 197 199 200 201 201 204 203 203 202 206 201 196 198 200 194 187 180 193 202 206 202 198 212 228 245 275 333 4 11 11
215 218 220 207 204 204 206 208 202 200 198 195 194 199 199 201 202 204 203 204 205 204 201 202 203 202 202 206 191 192 207 206 205 220 220 208 218 235 241 271 299 348 1
Height
1519 1523 1527 1531 1534 1535 1538 1539 1541 1543 1545 1546 1547 1548 1549 1550 1551 1553 1554 1554 1555 1556 1556 1556 1557 1558 1557 1557 1558 1558 1558 1558 1558 1557 1557 1557 1557 1556 1555 1555 1554 1554 1553
1516 1521 1525 1530 1533 1535 1538 1540 1542 1544 1546 1548 1549 1550 1551 1553 1554 1556 1557 1558 1558 1559 1559 1560 1561 1561 1561 1561 1561 1562 1561 1561 1560 1559 1558 1558 1558 1559 1558 1557 1556 1556 1555
1515 1520 1525 1529 1533 1535 1538 1540 1543 1545 1547 1549 1551 1552 1554 1556 1557 1558 1560 1561 1562 1562 1563 1563 1563 1564 1564 1564 1564 1564 1564 1564 1563 1562 1561 1560 1560 1560 1559 1558 1557 1556 1556
1516 1520 1525 1530 1533 1535 1538 1541 1543 1545 1548 1550 1552 1554 1556 1558 1560 1561 1563 1564 1564 1565 1566 1566 1567 1567 1567 1567 1567 1567 1567 1566 1564 1563 1562 1560 1561 1561 1560 1560 1560 1559 1558
1518 1522 1526 1530 1533 1536 1539 1541 1543 1546 1548 1551 1553 1556 1558 1560 1562 1564 1565 1566 1566 1568 1568 1569 1569 1570 1570 1569 1569 1568 1568 1567 1566 1564 1563 1563 1564 1564 1563 1562 1562 1563 1562
1519 1523 1527 1530 1533 1536 1539 1542 1545 1547 1550 1552 1555 1557 1560 1562 1564 1565 1566 1567 1568 1569 1570 1571 1572 1572 1572 1571 1571 1571 1570 1570 1568 1567 1565 1567 1567 1567 1567 1566 1565 1565 1564
1519 1524 1527 1531 1534 1537 1540 1543 1546 1549 1551 1554 1557 1559 1561 1563 1565 1567 1568 1568 1569 1571 1572 1573 1574 1574 1574 1574 1574 1573 1573 1572 1570 1569 1570 1570 1572 1572 1571 1571 1569 1568 1568
1519 1524 1528 1532 1535 1538 1541 1544 1547 1550 1553 1555 1558 1560 1562 1564 1566 1567 1569 1569 1570 1572 1574 1575 1575 1576 1576 1576 1576 1576 1575 1575 1573 1572 1573 1574 1576 1575 1574 1573 1573 1572 1571
1522 1524 1527 1531 1535 1539 1542 1545 1549 1552 1555 1557 1558 1561 1564 1566 1567 1568 1569 1571 1572 1573 1575 1577 1577 1578 1578 1578 1578 1578 1577 1577 1575 1575 1576 1578 1579 1578 1578 1578 1576 1575 1574
1522 1524 1526 1531 1535 1538 1542 1546 1549 1552 1555 1557 1560 1562 1565 1568 1569 1570 1571 1573 1574 1575 1577 1578 1580 1580 1579 1580 1579 1579 1579 1579 1578 1578 1579 1582 1582 1581 1581 1580 1580 1579 1577
1521 1523 1525 1529 1534 1538 1541 1546 1549 1552 1555 1558 1560 1563 1564 1567 1570 1572 1573 1574 1575 1577 1579 1580 1582 1582 1581 1581 1581 1581 1581 1581 1581 1581 1583 1585 1585 1584 1584 1583 1582 1582 1581
1517 1521 1524 1527 1532 1537 1540 1544 1548 1551 1554 1558 1561 1563 1564 1566 1570 1573 1575 1576 1578 1578 1580 1582 1583 1584 1584 1583 1583 1585 1585 1584 1584 1585 1587 1588 1588 1587 1586 1586 1585 1585 1584
1516 1519 1523 1526 1530 1534 1539 1542 1546 1550 1553 1558 1561 1563 1565 1566 1569 1573 1575 1577 1578 1579 1580 1582 1584 1585 1586 1586 1587 1587 1588 1588 1587 1587 1590 1591 1591 1590 1589 1589 1588 1588 1586
1513 1518 1522 1525 1528 1532 1537 1541 1545 1549 1552 1557 1560 1563 1565 1566 1569 1572 1575 1577 1579 1580 1581 1583 1585 1586 1587 1588 1589 1590 1591 1591 1591 1590 1590 1592 1593 1593 1592 1592 1591 1591 1589
1512 1515 1520 1523 1526 1531 1535 1539 1543 1547 1551 1555 1560 1563 1565 1566 1569 1572 1576 1578 1579 1581 1582 1584 1586 1587 1589 1590 1591 1593 1593 1593 1594 1594 1593 1594 1593 1593 1594 1594 1594 1593 1591
1512 1513 1516 1520 1525 1529 1533 1538 1542 1546 1550 1555 1559 1562 1565 1567 1569 1573 1576 1578 1580 1583 1584 1586 1587 1589 1590 1591 1593 1595 1595 1596 1597 1596 1596 1596 1596 1594 1593 1594 1596 1596 1594
1506 1512 1515 1518 1523 1528 1533 1537 1541 1545 1549 1553 1558 1561 1564 1566 1569 1572 1575 1577 1580 1583 1585 1586 1588 1590 1591 1593 1594 1596 1598 1599 1600 1599 1598 1598 1597 1597 1596 1595 1596 1597 1597
1502 1510 1517 1521 1522 1527 1532 1537 1541 1544 1549 1552 1556 1559 1563 1565 1568 1571 1574 1578 1580 1582 1584 1586 1588 1590 1593 1594 1595 1598 1600 1602 1603 1602 1601 1601 1600 1599 1598 1597 1596 1596 1597
1497 1506 1514 1519 1523 1526 1531 1535 1540 1544 1547 1551 1554 1557 1561 1564 1567 1569 1573 1577 1580 1581 1584 1586 1588 1590 1592 1595 1596 1599 1601 1603 1604 1605 1604 1603 1603 1602 1601 1599 1598 1598 1597
1494 1502 1512 1518 1522 1526 1529 1534 1538 1542 1545 1549 1553 1555 1559 1562 1565 1568 1571 1575 1579 1581 1583 1586 1588 1590 1593 1594 1597 1600 1602 1604 1606 1607 1606 1605 1605 1604 1603 1601 1600 1599 1599
1490 1491 1506 1513 1519 1523 1525 1527 1531 1535 1540 1544 1550 1553 1557 1560 1563 1565 1570 1574 1577 1580 1582 1585 1588 1590 1593 1595 1596 1600 1603 1605 1606 1607 1608 1608 1607 1606 1605 1604 1602 1601 1600
1488 1492 1495 1511 1517 1521 1523 1526 1531 1534 1538 1541 1545 1550 1554 1557 1561 1562 1567 1571 1575 1578 1581 1583 1585 1587 1591 1594 1594 1597 1603 1607 1607 1608 1608 1609 1609 1607 1606 1605 1604 1603 1601
1481 1484 1488 1499 1511 1518 1521 1525 1530 1533 1536 1537 1540 1545 1551 1554 1559 1561 1564 1568 1573 1576 1579 1582 1584 1585 1587 1592 1595 1595 1599 1602 1604 1607 1608 1608 1608 1608 1607 1607 1606 1604 1603
1472 1479 1483 1492 1501 1512 1515 1520 1522 1526 1526 1530 1536 1541 1548 1552 1556 1559 1562 1566 1571 1574 1578 1580 1583 1585 1587 1588 1593 1594 1596 1598 1601 1605 1606 1607 1607 1607 1607 1606 1605 1604 1603
1466 1472 1478 1482 1495 1500 1508 1514 1518 1522 1526 1530 1535 1539 1544 1548 1553 1557 1560 1564 1569 1573 1577 1580 1581 1584 1587 1589 1591 1593 1596 1598 1599 1601 1602 1605 1607 1607 1607 1607 1606 1605 1604
1461 1468 1474 1471 1473 1491 1502 1508 1514 1516 1521 1527 1532 1534 1540 1544 1549 1554 1557 1561 1567 1571 1574 1578 1581 1583 1585 1589 1591 1593 1595 1596 1598 1600 1601 1603 1606 1606 1606 1606 1606 1605 1604